Location: Cantaing
(50.1487°N, 3.1675°E)
Time: 19:55:36
(UTC+00:00)

Cosmos 540 Rocket - Pass Details

Date: 14 January 2026
Orbit: 736 x 747 km, 74.1° (Epoch: 13 February)

Event Time Altitude Azimuth Distance (km) Brightness Sun altitude
Exits shadow 05:57:07 - 342° (NNW) 2,525 5.9 -16.1°
Reaches altitude 10° 05:57:50 10° 344° (NNW) 2,253 5.6 -16.0°
Maximum altitude 06:02:49 52° 61° (ENE) 912 4.2 -15.2°
Drops below altitude 10° 06:07:46 10° 138° (SE) 2,241 6.8 -14.4°
Sets 06:10:10 0° 143° (SE) 3,160 7.6 -14.0°
